Weather History for Doylestown, PA

Change the Weather History Date:

Friday, December 13, 2013

  Actual Average (KTTN) Record (KTTN)
Temperature  
Mean Temperature 24 °F 36 °F  
Max Temperature 33 °F 44 °F 65 °F (1990)
Min Temperature 14 °F 28 °F 6 °F (1988)
Degree Days  
Heating Degree Days 42 29  
Month to date heating degree days 350  
Since 1 July heating degree days 1326  
Cooling Degree Days 0 0  
Month to date cooling degree days 0  
Year to date cooling degree days 965  
Moisture  
Dew Point 12 °F    
Average Humidity 58    
Maximum Humidity 72    
Minimum Humidity 46    
Precipitation  
Precipitation 0.00 in 0.14 in 2.30 in (1909)
Month to date precipitation 1.79  
Year to date precipitation 44.53  
Sea Level Pressure  
Sea Level Pressure 30.23 in    
Wind  
Wind Speed 6 mph (WSW)    
Max Wind Speed 13 mph    
Max Gust Speed 20 mph    
Visibility 10 miles    
Events      
T = Trace of Precipitation, MM = Missing Value Source: NWS Daily Summary

Daily Weather History Graph

Daily Weather History Graph

Search for Another Location

Airport:

Trip Planner

Search our weather history database for the weather conditions in past years. The results will help you decide how hot, cold, wet, or windy it might be!

Date:

Astronomy

Dec. 13, 2013 Rise Set
Actual Time 7:14 AM EST 4:34 PM EST
Civil Twilight 6:44 AM EST 5:05 PM EST
Nautical Twilight 6:10 AM EST 5:39 PM EST
Astronomical Twilight 5:36 AM EST 6:12 PM EST
Moon 2:16 PM EST (12/13) 3:34 AM EST (12/13)
Length of Visible Light 10h 21m
Length of Day
9h 19m
Waxing Gibbous, 88% of the Moon is Illuminated
Dec 13
Waxing Gibbous
Dec 17
Full
Dec 25
Last Quarter
Jan 1
New
Jan 7
First Quarter

Hourly Weather History & Observations

Time (EST) Temp. Windchill Dew Point Humidity Pressure Visibility Wind Dir Wind Speed Gust Speed Precip Events Conditions
12:54 AM 14.0 °F 5.1 °F 6.1 °F 71% 30.19 in 10.0 mi SW 5.8 mph - N/A   Clear
1:54 AM 16.0 °F 7.4 °F 5.0 °F 62% 30.18 in 10.0 mi SW 5.8 mph - N/A   Clear
2:54 AM 16.0 °F 7.4 °F 5.0 °F 62% 30.18 in 10.0 mi SW 5.8 mph - N/A   Clear
3:54 AM 17.1 °F 10.0 °F 6.1 °F 62% 30.17 in 10.0 mi WSW 4.6 mph - N/A   Clear
4:54 AM 18.0 °F 11.1 °F 7.0 °F 62% 30.19 in 10.0 mi SW 4.6 mph - N/A   Overcast
5:54 AM 19.0 °F 10.0 °F 8.1 °F 62% 30.19 in 10.0 mi SW 6.9 mph - N/A   Overcast
6:54 AM 21.0 °F 13.4 °F 9.0 °F 60% 30.21 in 10.0 mi SW 5.8 mph - N/A   Overcast
7:54 AM 23.0 °F 13.9 °F 9.0 °F 55% 30.22 in 10.0 mi WSW 8.1 mph - N/A   Overcast
8:54 AM 24.1 °F 16.0 °F 10.0 °F 55% 30.23 in 10.0 mi WSW 6.9 mph - N/A   Mostly Cloudy
9:54 AM 27.0 °F 17.3 °F 10.9 °F 51% 30.24 in 10.0 mi West 10.4 mph - N/A   Clear
10:54 AM 28.9 °F 18.6 °F 12.0 °F 49% 30.23 in 10.0 mi West 12.7 mph 19.6 mph N/A   Clear
11:54 AM 30.9 °F 24.3 °F 12.9 °F 47% 30.21 in 10.0 mi Variable 6.9 mph - N/A   Partly Cloudy
12:54 PM 32.0 °F 22.5 °F 14.0 °F 48% 30.20 in 10.0 mi West 12.7 mph 16.1 mph N/A   Clear
1:54 PM 33.1 °F 24.4 °F 14.0 °F 46% 30.19 in 10.0 mi WSW 11.5 mph 18.4 mph N/A   Clear
2:54 PM 33.1 °F 26.1 °F 14.0 °F 46% 30.19 in 10.0 mi WSW 8.1 mph 17.3 mph N/A   Clear
3:54 PM 32.0 °F 27.5 °F 15.1 °F 50% 30.21 in 10.0 mi West 4.6 mph - N/A   Clear
4:54 PM 30.0 °F 26.5 °F 15.1 °F 54% 30.23 in 10.0 mi SW 3.5 mph - N/A   Clear
5:54 PM 28.9 °F 25.2 °F 15.1 °F 56% 30.25 in 10.0 mi SSW 3.5 mph - N/A   Clear
6:54 PM 28.0 °F 24.2 °F 16.0 °F 61% 30.27 in 10.0 mi SW 3.5 mph - N/A   Clear
7:54 PM 27.0 °F 23.0 °F 16.0 °F 63% 30.30 in 10.0 mi SW 3.5 mph - N/A   Clear
8:54 PM 27.0 °F - 16.0 °F 63% 30.30 in 10.0 mi Calm Calm - N/A   Clear
9:54 PM 26.1 °F - 17.1 °F 69% 30.31 in 10.0 mi Calm Calm - N/A   Clear
10:54 PM 26.1 °F - 18.0 °F 71% 30.32 in 10.0 mi Calm Calm - N/A   Clear
11:54 PM 27.0 °F - 19.0 °F 72% 30.35 in 10.0 mi Calm Calm - N/A   Clear